Weather History for West Palm Beach, FL

Change the Weather History Date:

Monday, March 4, 2013

  Actual Average Record
Temperature  
Mean Temperature 52 °F 69 °F  
Max Temperature 65 °F 78 °F 92 °F (2003)
Min Temperature 38 °F 61 °F 37 °F (1927)
Degree Days  
Heating Degree Days 13 1  
Month to date heating degree days 33 4  
Since 1 July heating degree days 116 209  
Cooling Degree Days 0 6  
Month to date cooling degree days 0 22  
Year to date cooling degree days 381 257  
Moisture  
Dew Point 34 °F    
Average Humidity 51    
Maximum Humidity 79    
Minimum Humidity 22    
Precipitation  
Precipitation 0.00 in 0.13 in 0.96 in (1948)
Month to date precipitation T 0.50  
Year to date precipitation 3.19 6.45  
Snow  
Snow 0.00 in - - ()
Month to date snowfall 0.0  
Since 1 July snowfall 0.0  
Snow Depth 0.00 in    
Sea Level Pressure  
Sea Level Pressure 30.16 in    
Wind  
Wind Speed 9 mph (NNW)    
Max Wind Speed 22 mph    
Max Gust Speed 29 mph    
Visibility 10 miles    
Events      
T = Trace of Precipitation, MM = Missing Value Source: NWS Daily Summary

Daily Weather History Graph

Daily Weather History Graph

Search for Another Location

Airport:

Trip Planner

Search our weather history database for the weather conditions in past years. The results will help you decide how hot, cold, wet, or windy it might be!

Date:

Astronomy

Mar. 04, 2013 Rise Set
Actual Time 6:40 AM EST 6:23 PM EST
Civil Twilight 6:17 AM EST 6:46 PM EST
Nautical Twilight 5:50 AM EST 7:13 PM EST
Astronomical Twilight 5:24 AM EST 7:40 PM EST
Moon 12:26 AM EST (3/4) 11:26 AM EST (3/4)
Length of Visible Light 12h 28m
Length of Day
11h 42m
Waning Gibbous, 52% of the Moon is Illuminated
Mar 4
Waning Gibbous
Mar 4
Last Quarter
Mar 11
New
Mar 19
First Quarter
Mar 27
Full

Hourly Weather History & Observations

Time (EST) Temp. Windchill Dew Point Humidity Pressure Visibility Wind Dir Wind Speed Gust Speed Precip Events Conditions
12:53 AM 46.9 °F - 35.1 °F 63% 30.14 in 10.0 mi NNW 15.0 mph - N/A   Clear
1:53 AM 44.1 °F 37.7 °F 33.1 °F 65% 30.14 in 10.0 mi NNW 12.7 mph - N/A   Clear
2:53 AM 44.1 °F 37.7 °F 33.1 °F 65% 30.12 in 10.0 mi NNW 12.7 mph - N/A   Clear
3:53 AM 43.0 °F 36.4 °F 32.0 °F 65% 30.12 in 10.0 mi NNW 12.7 mph - N/A   Clear
4:53 AM 41.0 °F 37.1 °F 30.9 °F 67% 30.15 in 10.0 mi NW 5.8 mph - N/A   Clear
5:53 AM 39.0 °F 34.8 °F 30.9 °F 73% 30.16 in 10.0 mi NW 5.8 mph - N/A   Clear
6:53 AM 39.9 °F 36.7 °F 33.1 °F 77% 30.18 in 10.0 mi WNW 4.6 mph - N/A   Partly Cloudy
7:53 AM 46.9 °F - 32.0 °F 56% 30.20 in 10.0 mi NNW 11.5 mph - N/A   Partly Cloudy
8:53 AM 51.1 °F - 30.0 °F 44% 30.21 in 10.0 mi NNW 13.8 mph - N/A   Partly Cloudy
9:53 AM 55.0 °F - 30.0 °F 38% 30.21 in 10.0 mi NNW 18.4 mph 24.2 mph N/A   Clear
10:53 AM 57.9 °F - 30.0 °F 35% 30.21 in 10.0 mi NNW 12.7 mph - N/A   Partly Cloudy
11:53 AM 60.1 °F - 26.1 °F 27% 30.19 in 10.0 mi North 6.9 mph - N/A   Clear
12:53 PM 64.0 °F - 24.1 °F 22% 30.16 in 10.0 mi Variable 5.8 mph 16.1 mph N/A   Clear
1:53 PM 64.9 °F - 34.0 °F 32% 30.14 in 10.0 mi NNE 10.4 mph - N/A   Clear
2:53 PM 64.9 °F - 33.1 °F 31% 30.14 in 10.0 mi NNE 9.2 mph - N/A   Clear
3:53 PM 64.9 °F - 30.9 °F 28% 30.14 in 10.0 mi NE 13.8 mph - N/A   Clear
4:53 PM 63.0 °F - 32.0 °F 31% 30.14 in 10.0 mi NNE 11.5 mph - N/A   Partly Cloudy
5:53 PM 62.1 °F - 30.0 °F 30% 30.15 in 10.0 mi North 10.4 mph - N/A   Partly Cloudy
6:53 PM 59.0 °F - 37.9 °F 46% 30.15 in 10.0 mi North 6.9 mph - N/A   Clear
7:53 PM 55.0 °F - 41.0 °F 59% 30.16 in 10.0 mi Calm Calm - N/A   Clear
8:53 PM 52.0 °F - 41.0 °F 66% 30.18 in 10.0 mi WNW 3.5 mph - N/A   Clear
9:53 PM 53.1 °F - 44.1 °F 71% 30.18 in 10.0 mi Calm Calm - N/A   Clear
10:53 PM 52.0 °F - 45.0 °F 77% 30.18 in 10.0 mi Calm Calm - N/A   Clear
11:53 PM 50.0 °F - 44.1 °F 80% 30.18 in 10.0 mi Calm Calm - N/A   Clear